Weather History for Hatteras, NC

Change the Weather History Date:

Thursday, March 13, 2014

  Actual Average Record
Temperature  
Mean Temperature 44 °F 51 °F  
Max Temperature 52 °F 58 °F 81 °F (1990)
Min Temperature 39 °F 44 °F 27 °F (1960)
Degree Days  
Heating Degree Days 20 14  
Month to date heating degree days 202  
Since 1 July heating degree days 2126  
Cooling Degree Days 0 0  
Month to date cooling degree days 0  
Year to date cooling degree days 0  
Moisture  
Dew Point 20 °F    
Average Humidity 44    
Maximum Humidity 96    
Minimum Humidity 28    
Precipitation  
Precipitation 0.01 in 0.16 in 2.80 in (2002)
Month to date precipitation 1.94  
Year to date precipitation 11.20  
Snow  
Snow 0.00 in - - ()
Month to date snowfall  
Since 1 July snowfall  
Snow Depth -    
Sea Level Pressure  
Sea Level Pressure 29.88 in    
Wind  
Wind Speed 18 mph (NW)    
Max Wind Speed 24 mph    
Max Gust Speed 38 mph    
Visibility 10 miles    
Events Rain    
T = Trace of Precipitation, MM = Missing Value Source: NWS Daily Summary

Daily Weather History Graph

Daily Weather History Graph

Search for Another Location

Airport:

Trip Planner

Search our weather history database for the weather conditions in past years. The results will help you decide how hot, cold, wet, or windy it might be!

Date:

Astronomy

Mar. 13, 2014 Rise Set
Actual Time 7:15 AM EDT 7:08 PM EDT
Civil Twilight 6:50 AM EDT 7:33 PM EDT
Nautical Twilight 6:21 AM EDT 8:03 PM EDT
Astronomical Twilight 5:51 AM EDT 8:32 PM EDT
Moon 4:36 PM EDT (3/13) 5:16 AM EDT (3/13)
Length of Visible Light 12h 43m
Length of Day
11h 52m
Waxing Gibbous, 91% of the Moon is Illuminated
Mar 13
Waxing Gibbous
Mar 16
Full
Mar 23
Last Quarter
Mar 30
New
Apr 7
First Quarter

Hourly Weather History & Observations

Time (EDT) Temp. Windchill Dew Point Humidity Pressure Visibility Wind Dir Wind Speed Gust Speed Precip Events Conditions
12:51 AM 50.0 °F - 48.9 °F 96% 29.45 in 10.0 mi NW 18.4 mph 29.9 mph 0.01 in Rain Light Rain
1:51 AM 48.9 °F - 39.0 °F 69% 29.50 in 10.0 mi WNW 21.9 mph 35.7 mph 0.00 in   Overcast
2:51 AM 46.0 °F 38.5 °F 33.1 °F 61% 29.56 in 10.0 mi NW 19.6 mph 38.0 mph N/A   Clear
3:51 AM 44.1 °F 35.0 °F 30.0 °F 58% 29.60 in 10.0 mi NW 24.2 mph 36.8 mph N/A   Clear
4:51 AM 43.0 °F 34.8 °F 30.0 °F 60% 29.64 in 10.0 mi NW 18.4 mph 31.1 mph N/A   Clear
5:51 AM 42.1 °F 33.6 °F 27.0 °F 55% 29.68 in 10.0 mi NW 18.4 mph 32.2 mph N/A   Clear
6:51 AM 41.0 °F 32.5 °F 25.0 °F 53% 29.71 in 10.0 mi NW 17.3 mph 38.0 mph N/A   Clear
7:51 AM 39.9 °F 31.4 °F 25.0 °F 55% 29.76 in 10.0 mi NW 16.1 mph 31.1 mph N/A   Partly Cloudy
8:51 AM 41.0 °F 31.9 °F 24.1 °F 51% 29.81 in 10.0 mi NW 19.6 mph 32.2 mph N/A   Clear
9:51 AM 41.0 °F 31.6 °F 21.9 °F 47% 29.86 in 10.0 mi NW 20.7 mph 29.9 mph N/A   Partly Cloudy
10:51 AM 41.0 °F 32.2 °F 21.0 °F 45% 29.89 in 10.0 mi NW 18.4 mph 28.8 mph N/A   Clear
11:51 AM 42.1 °F 34.2 °F 17.1 °F 37% 29.90 in 10.0 mi NW 16.1 mph 27.6 mph N/A   Clear
12:51 PM 43.0 °F 35.1 °F 18.0 °F 37% 29.91 in 10.0 mi WNW 17.3 mph 25.3 mph N/A   Clear
1:51 PM 43.0 °F 35.7 °F 14.0 °F 31% 29.92 in 10.0 mi WNW 15.0 mph 31.1 mph N/A   Clear
2:51 PM 44.1 °F 37.4 °F 12.9 °F 28% 29.94 in 10.0 mi NW 13.8 mph 29.9 mph N/A   Clear
3:51 PM 43.0 °F 35.4 °F 14.0 °F 31% 29.96 in 10.0 mi WNW 16.1 mph 32.2 mph N/A   Partly Cloudy
4:51 PM 43.0 °F 36.4 °F 12.9 °F 30% 29.99 in 10.0 mi NNW 12.7 mph 31.1 mph N/A   Clear
5:51 PM 42.1 °F 34.5 °F 12.9 °F 31% 30.02 in 10.0 mi NW 15.0 mph 25.3 mph N/A   Clear
6:51 PM 39.9 °F 32.9 °F 12.0 °F 32% 30.06 in 10.0 mi NW 11.5 mph 23.0 mph N/A   Clear
7:51 PM 39.9 °F 32.1 °F 10.0 °F 29% 30.11 in 10.0 mi NW 13.8 mph 23.0 mph N/A   Clear
8:51 PM 39.0 °F 31.0 °F 10.9 °F 32% 30.15 in 10.0 mi NNW 13.8 mph 24.2 mph N/A   Clear
9:51 PM 39.0 °F 30.3 °F 10.9 °F 32% 30.19 in 10.0 mi NW 16.1 mph 24.2 mph N/A   Clear
10:51 PM 39.0 °F 30.6 °F 10.0 °F 30% 30.22 in 10.0 mi NW 15.0 mph 23.0 mph N/A   Clear
11:51 PM 39.0 °F 30.6 °F 10.0 °F 30% 30.24 in 10.0 mi NW 15.0 mph 24.2 mph N/A   Clear